Time,TemperatureF,DewpointF,PressureIn,WindDirection,WindDirectionDegrees,WindSpeedMPH,WindSpeedGustMPH,Humidity,HourlyPrecipIn,Conditions,Clouds,dailyrainin,SoftwareType,DateUTC
2017-07-27 00:04:00,72.3,64.7,29.97,South,178,0.0,0.0,77,0.00,,,0.00,VWS V14.01,2017-07-27 04:04:00,
2017-07-27 00:09:00,72.3,64.7,29.98,South,178,0.0,0.0,77,0.00,,,0.00,VWS V14.01,2017-07-27 04:09:00,
2017-07-27 00:14:00,72.3,64.7,29.98,South,178,0.0,0.0,77,0.00,,,0.00,VWS V14.01,2017-07-27 04:14:00,
2017-07-27 00:19:00,72.2,64.6,29.98,South,178,0.0,0.0,77,0.00,,,0.00,VWS V14.01,2017-07-27 04:19:00,
2017-07-27 00:25:00,72.2,65.0,29.98,South,178,0.0,0.0,78,0.00,,,0.00,VWS V14.01,2017-07-27 04:25:00,
2017-07-27 00:30:00,72.2,65.0,29.98,South,178,0.0,0.0,78,0.00,,,0.00,VWS V14.01,2017-07-27 04:30:00,
2017-07-27 00:35:00,72.1,65.2,29.98,South,178,0.0,0.0,79,0.00,,,0.00,VWS V14.01,2017-07-27 04:35:00,
2017-07-27 00:40:00,72.0,65.1,29.98,South,178,0.0,0.0,79,0.00,,,0.00,VWS V14.01,2017-07-27 04:40:00,
2017-07-27 00:45:00,71.9,65.0,29.98,South,178,0.0,0.0,79,0.00,,,0.00,VWS V14.01,2017-07-27 04:45:00,
2017-07-27 00:50:00,71.8,64.9,29.98,South,178,0.0,0.0,79,0.00,,,0.00,VWS V14.01,2017-07-27 04:50:00,
2017-07-27 00:55:00,71.7,65.2,29.98,South,178,0.0,0.0,80,0.00,,,0.00,VWS V14.01,2017-07-27 04:55:00,
2017-07-27 01:00:00,71.6,65.1,29.98,South,178,0.0,0.0,80,0.00,,,0.00,VWS V14.01,2017-07-27 05:00:00,
2017-07-27 01:05:00,71.5,65.0,29.97,South,178,0.0,0.0,80,0.00,,,0.00,VWS V14.01,2017-07-27 05:05:00,
2017-07-27 01:10:00,71.4,65.3,29.98,South,178,0.0,0.0,81,0.00,,,0.00,VWS V14.01,2017-07-27 05:10:00,
2017-07-27 01:15:00,71.3,65.2,29.97,South,178,0.0,0.0,81,0.00,,,0.00,VWS V14.01,2017-07-27 05:15:00,
2017-07-27 01:20:00,71.2,65.1,29.97,South,178,0.0,0.0,81,0.00,,,0.00,VWS V14.01,2017-07-27 05:20:00,
2017-07-27 01:25:00,71.1,65.0,29.97,South,178,0.0,0.0,81,0.00,,,0.00,VWS V14.01,2017-07-27 05:25:00,
2017-07-27 01:30:00,71.0,64.9,29.97,South,178,0.0,0.0,81,0.00,,,0.00,VWS V14.01,2017-07-27 05:30:00,
2017-07-27 01:35:00,70.8,65.0,29.97,South,178,0.0,0.0,82,0.00,,,0.00,VWS V14.01,2017-07-27 05:35:00,
2017-07-27 01:40:00,70.7,64.9,29.97,South,178,0.0,0.0,82,0.00,,,0.00,VWS V14.01,2017-07-27 05:40:00,
2017-07-27 01:45:00,70.6,64.8,29.96,South,178,0.0,0.0,82,0.00,,,0.00,VWS V14.01,2017-07-27 05:45:00,
2017-07-27 01:50:00,70.4,65.0,29.96,South,178,0.0,0.0,83,0.00,,,0.00,VWS V14.01,2017-07-27 05:50:00,
2017-07-27 01:55:00,70.4,65.0,29.96,South,173,0.0,0.0,83,0.00,,,0.00,VWS V14.01,2017-07-27 05:55:00,
2017-07-27 02:00:00,70.4,65.3,29.96,South,173,0.0,0.0,84,0.00,,,0.00,VWS V14.01,2017-07-27 06:00:00,
2017-07-27 02:05:00,70.4,65.3,29.96,South,173,0.0,0.0,84,0.00,,,0.00,VWS V14.01,2017-07-27 06:05:00,
2017-07-27 02:10:00,70.4,65.7,29.95,South,173,0.0,0.0,85,0.00,,,0.00,VWS V14.01,2017-07-27 06:10:00,
2017-07-27 02:15:00,70.4,65.7,29.95,South,177,1.0,3.0,85,0.00,,,0.00,VWS V14.01,2017-07-27 06:15:00,
2017-07-27 02:20:00,70.5,66.1,29.95,South,171,0.0,0.0,86,0.00,,,0.00,VWS V14.01,2017-07-27 06:20:00,
2017-07-27 02:25:00,70.6,66.2,29.95,South,172,0.0,0.0,86,0.00,,,0.00,VWS V14.01,2017-07-27 06:25:00,
2017-07-27 02:30:00,70.6,66.2,29.95,SW,221,0.0,0.0,86,0.00,,,0.00,VWS V14.01,2017-07-27 06:30:00,
2017-07-27 02:35:00,70.6,66.6,29.94,South,191,0.0,0.0,87,0.00,,,0.00,VWS V14.01,2017-07-27 06:35:00,
2017-07-27 02:40:00,70.6,66.6,29.94,South,191,0.0,0.0,87,0.00,,,0.00,VWS V14.01,2017-07-27 06:40:00,
2017-07-27 02:45:00,70.6,66.6,29.94,South,191,0.0,0.0,87,0.00,,,0.00,VWS V14.01,2017-07-27 06:45:00,
2017-07-27 02:50:00,70.5,66.8,29.94,South,191,0.0,0.0,88,0.00,,,0.00,VWS V14.01,2017-07-27 06:50:00,
2017-07-27 02:55:00,70.4,66.7,29.94,South,191,0.0,0.0,88,0.00,,,0.00,VWS V14.01,2017-07-27 06:55:00,
2017-07-27 03:00:00,70.4,66.7,29.94,South,191,0.0,0.0,88,0.00,,,0.00,VWS V14.01,2017-07-27 07:00:00,
2017-07-27 03:05:00,70.3,66.6,29.94,South,191,0.0,0.0,88,0.00,,,0.00,VWS V14.01,2017-07-27 07:05:00,
2017-07-27 03:10:00,70.2,66.5,29.94,South,191,0.0,0.0,88,0.00,,,0.00,VWS V14.01,2017-07-27 07:10:00,
2017-07-27 03:16:00,70.1,66.4,29.94,South,191,0.0,0.0,88,0.00,,,0.00,VWS V14.01,2017-07-27 07:16:00,
2017-07-27 03:21:00,70.0,66.6,29.94,South,191,0.0,0.0,89,0.00,,,0.00,VWS V14.01,2017-07-27 07:21:00,
2017-07-27 03:26:00,69.9,66.5,29.94,South,191,0.0,0.0,89,0.00,,,0.00,VWS V14.01,2017-07-27 07:26:00,
2017-07-27 03:31:00,69.8,66.4,29.94,South,191,0.0,0.0,89,0.00,,,0.00,VWS V14.01,2017-07-27 07:31:00,
2017-07-27 03:36:00,69.7,66.3,29.94,South,191,0.0,0.0,89,0.00,,,0.00,VWS V14.01,2017-07-27 07:36:00,
2017-07-27 03:41:00,69.6,66.2,29.94,South,191,0.0,0.0,89,0.00,,,0.00,VWS V14.01,2017-07-27 07:41:00,
2017-07-27 03:44:00,69.5,66.1,29.94,South,191,0.0,0.0,89,0.00,,,0.00,VWS V14.01,2017-07-27 07:44:00,
2017-07-27 03:49:00,69.5,66.4,29.94,South,191,0.0,0.0,90,0.00,,,0.00,VWS V14.01,2017-07-27 07:49:00,
2017-07-27 03:54:00,69.4,66.3,29.94,South,191,0.0,0.0,90,0.00,,,0.00,VWS V14.01,2017-07-27 07:54:00,
2017-07-27 03:59:00,69.3,66.2,29.94,South,191,0.0,0.0,90,0.00,,,0.00,VWS V14.01,2017-07-27 07:59:00,
2017-07-27 04:04:00,69.2,66.2,29.94,South,191,0.0,0.0,90,0.00,,,0.00,VWS V14.01,2017-07-27 08:04:00,
2017-07-27 04:09:00,69.2,66.2,29.93,South,191,0.0,0.0,90,0.00,,,0.00,VWS V14.01,2017-07-27 08:09:00,
2017-07-27 04:14:00,69.1,66.1,29.93,South,191,0.0,0.0,90,0.00,,,0.00,VWS V14.01,2017-07-27 08:14:00,
2017-07-27 04:19:00,69.1,66.1,29.93,South,191,0.0,0.0,90,0.00,,,0.00,VWS V14.01,2017-07-27 08:19:00,
2017-07-27 04:24:00,69.1,66.1,29.92,South,191,0.0,0.0,90,0.00,,,0.00,VWS V14.01,2017-07-27 08:24:00,
2017-07-27 04:29:00,69.0,65.9,29.92,South,191,0.0,0.0,90,0.00,,,0.00,VWS V14.01,2017-07-27 08:29:00,
2017-07-27 04:34:00,69.0,65.9,29.92,South,191,0.0,0.0,90,0.00,,,0.00,VWS V14.01,2017-07-27 08:34:00,
2017-07-27 04:39:00,69.0,65.9,29.93,South,191,0.0,0.0,90,0.00,,,0.00,VWS V14.01,2017-07-27 08:39:00,
2017-07-27 04:44:00,69.0,65.9,29.93,South,191,0.0,0.0,90,0.00,,,0.00,VWS V14.01,2017-07-27 08:44:00,
2017-07-27 04:45:00,69.0,65.9,29.93,South,191,0.0,0.0,90,0.00,,,0.00,VWS V14.01,2017-07-27 08:45:00,
2017-07-27 04:50:00,68.9,65.8,29.93,South,191,0.0,0.0,90,0.00,,,0.00,VWS V14.01,2017-07-27 08:50:00,
2017-07-27 04:55:00,68.9,65.8,29.93,South,191,0.0,0.0,90,0.00,,,0.00,VWS V14.01,2017-07-27 08:55:00,
2017-07-27 05:00:00,68.8,65.8,29.93,South,191,0.0,0.0,90,0.00,,,0.00,VWS V14.01,2017-07-27 09:00:00,
2017-07-27 05:05:00,68.8,65.8,29.93,South,191,0.0,0.0,90,0.00,,,0.00,VWS V14.01,2017-07-27 09:05:00,
2017-07-27 05:10:00,68.7,65.7,29.93,South,191,0.0,0.0,90,0.00,,,0.00,VWS V14.01,2017-07-27 09:10:00,
2017-07-27 05:15:00,68.6,65.6,29.93,South,191,0.0,0.0,90,0.00,,,0.00,VWS V14.01,2017-07-27 09:15:00,
2017-07-27 05:20:00,68.5,65.5,29.93,South,191,0.0,0.0,90,0.00,,,0.00,VWS V14.01,2017-07-27 09:20:00,
2017-07-27 05:25:00,68.4,65.4,29.92,South,191,0.0,0.0,90,0.00,,,0.00,VWS V14.01,2017-07-27 09:25:00,
2017-07-27 05:30:00,68.3,65.3,29.92,South,191,0.0,0.0,90,0.00,,,0.00,VWS V14.01,2017-07-27 09:30:00,
2017-07-27 05:35:00,68.2,65.2,29.92,South,191,0.0,0.0,90,0.00,,,0.00,VWS V14.01,2017-07-27 09:35:00,
2017-07-27 05:40:00,68.1,65.1,29.93,South,191,0.0,0.0,90,0.00,,,0.00,VWS V14.01,2017-07-27 09:40:00,
2017-07-27 05:45:00,68.0,65.3,29.93,South,191,0.0,0.0,91,0.00,,,0.00,VWS V14.01,2017-07-27 09:45:00,
2017-07-27 05:50:00,68.0,65.3,29.93,South,191,0.0,0.0,91,0.00,,,0.00,VWS V14.01,2017-07-27 09:50:00,
2017-07-27 05:55:00,67.9,65.2,29.92,South,191,0.0,0.0,91,0.00,,,0.00,VWS V14.01,2017-07-27 09:55:00,
2017-07-27 06:00:00,67.9,65.2,29.92,South,191,0.0,0.0,91,0.00,,,0.00,VWS V14.01,2017-07-27 10:00:00,
2017-07-27 06:05:00,67.9,65.2,29.93,South,191,0.0,0.0,91,0.00,,,0.00,VWS V14.01,2017-07-27 10:05:00,
2017-07-27 06:10:00,67.8,65.4,29.93,South,191,0.0,0.0,92,0.00,,,0.00,VWS V14.01,2017-07-27 10:10:00,
2017-07-27 06:15:00,67.8,65.4,29.93,South,191,0.0,0.0,92,0.00,,,0.00,VWS V14.01,2017-07-27 10:15:00,
2017-07-27 06:20:00,67.7,65.3,29.93,South,191,0.0,0.0,92,0.00,,,0.00,VWS V14.01,2017-07-27 10:20:00,
2017-07-27 06:25:00,67.7,65.3,29.93,South,191,0.0,0.0,92,0.00,,,0.00,VWS V14.01,2017-07-27 10:25:00,
2017-07-27 06:30:00,67.7,65.3,29.93,South,191,0.0,0.0,92,0.00,,,0.00,VWS V14.01,2017-07-27 10:30:00,
2017-07-27 06:35:00,67.7,65.3,29.93,South,191,0.0,0.0,92,0.00,,,0.00,VWS V14.01,2017-07-27 10:35:00,
2017-07-27 06:40:00,67.7,65.3,29.93,South,191,0.0,0.0,92,0.00,,,0.00,VWS V14.01,2017-07-27 10:40:00,
2017-07-27 06:45:00,67.6,65.2,29.93,South,191,0.0,0.0,92,0.00,,,0.00,VWS V14.01,2017-07-27 10:45:00,
2017-07-27 06:50:00,67.7,65.3,29.93,South,191,0.0,0.0,92,0.00,,,0.00,VWS V14.01,2017-07-27 10:50:00,
2017-07-27 06:55:00,67.7,65.3,29.93,South,191,0.0,0.0,92,0.00,,,0.00,VWS V14.01,2017-07-27 10:55:00,
2017-07-27 07:00:00,67.6,65.2,29.93,South,191,0.0,0.0,92,0.00,,,0.00,VWS V14.01,2017-07-27 11:00:00,
2017-07-27 07:05:00,67.7,65.6,29.93,South,191,0.0,0.0,93,0.00,,,0.00,VWS V14.01,2017-07-27 11:05:00,
2017-07-27 07:10:00,67.7,65.6,29.93,South,191,0.0,0.0,93,0.00,,,0.00,VWS V14.01,2017-07-27 11:10:00,
2017-07-27 07:15:00,67.7,65.6,29.93,South,191,0.0,0.0,93,0.00,,,0.00,VWS V14.01,2017-07-27 11:15:00,
2017-07-27 07:20:00,67.8,65.7,29.93,South,191,0.0,0.0,93,0.00,,,0.00,VWS V14.01,2017-07-27 11:20:00,
2017-07-27 07:25:00,67.9,65.8,29.93,South,191,0.0,0.0,93,0.00,,,0.00,VWS V14.01,2017-07-27 11:25:00,
2017-07-27 07:30:00,67.9,65.8,29.93,South,191,0.0,0.0,93,0.00,,,0.00,VWS V14.01,2017-07-27 11:30:00,
2017-07-27 07:35:00,67.9,65.8,29.93,South,191,0.0,0.0,93,0.00,,,0.00,VWS V14.01,2017-07-27 11:35:00,
2017-07-27 07:40:00,68.0,65.9,29.93,South,191,0.0,0.0,93,0.00,,,0.00,VWS V14.01,2017-07-27 11:40:00,
2017-07-27 07:45:00,68.1,66.0,29.93,South,191,0.0,0.0,93,0.00,,,0.00,VWS V14.01,2017-07-27 11:45:00,
2017-07-27 07:50:00,68.1,66.0,29.93,South,191,0.0,0.0,93,0.00,,,0.00,VWS V14.01,2017-07-27 11:50:00,
2017-07-27 07:55:00,68.2,66.1,29.93,South,191,0.0,0.0,93,0.00,,,0.00,VWS V14.01,2017-07-27 11:55:00,
2017-07-27 08:00:00,68.2,66.1,29.93,South,191,0.0,0.0,93,0.00,,,0.00,VWS V14.01,2017-07-27 12:00:00,
2017-07-27 08:05:00,68.3,66.2,29.92,South,191,0.0,0.0,93,0.00,,,0.00,VWS V14.01,2017-07-27 12:05:00,
2017-07-27 08:10:00,68.3,65.9,29.92,South,191,0.0,0.0,92,0.00,,,0.00,VWS V14.01,2017-07-27 12:10:00,
2017-07-27 08:15:00,68.4,66.0,29.93,South,191,0.0,0.0,92,0.00,,,0.00,VWS V14.01,2017-07-27 12:15:00,
2017-07-27 08:20:00,68.4,66.0,29.93,South,191,0.0,0.0,92,0.00,,,0.00,VWS V14.01,2017-07-27 12:20:00,
2017-07-27 08:26:00,68.5,66.1,29.92,South,191,0.0,0.0,92,0.00,,,0.00,VWS V14.01,2017-07-27 12:26:00,
2017-07-27 08:31:00,68.7,66.3,29.92,South,191,0.0,0.0,92,0.00,,,0.00,VWS V14.01,2017-07-27 12:31:00,
2017-07-27 08:36:00,68.8,66.1,29.92,South,191,0.0,0.0,91,0.00,,,0.00,VWS V14.01,2017-07-27 12:36:00,
2017-07-27 08:41:00,69.0,65.9,29.93,South,191,0.0,0.0,90,0.00,,,0.00,VWS V14.01,2017-07-27 12:41:00,
2017-07-27 08:46:00,69.2,66.2,29.93,South,191,0.0,0.0,90,0.00,,,0.00,VWS V14.01,2017-07-27 12:46:00,
2017-07-27 08:51:00,69.4,66.0,29.93,South,191,0.0,0.0,89,0.00,,,0.00,VWS V14.01,2017-07-27 12:51:00,
2017-07-27 08:56:00,69.5,66.1,29.93,South,191,0.0,0.0,89,0.00,,,0.00,VWS V14.01,2017-07-27 12:56:00,
2017-07-27 09:01:00,69.5,65.8,29.93,WSW,255,0.0,0.0,88,0.00,,,0.00,VWS V14.01,2017-07-27 13:01:00,
2017-07-27 09:06:00,69.6,66.2,29.93,WSW,255,0.0,0.0,89,0.00,,,0.00,VWS V14.01,2017-07-27 13:06:00,
2017-07-27 09:11:00,69.7,66.0,29.92,WSW,255,0.0,0.0,88,0.00,,,0.00,VWS V14.01,2017-07-27 13:11:00,
2017-07-27 09:16:00,69.9,66.2,29.93,WSW,256,0.0,0.0,88,0.00,,,0.00,VWS V14.01,2017-07-27 13:16:00,
2017-07-27 09:21:00,70.2,66.5,29.92,West,259,0.0,0.0,88,0.00,,,0.00,VWS V14.01,2017-07-27 13:21:00,
2017-07-27 09:26:00,70.6,66.9,29.92,West,267,0.0,0.0,88,0.00,,,0.00,VWS V14.01,2017-07-27 13:26:00,
2017-07-27 09:31:00,71.1,66.7,29.92,NW,323,0.0,0.0,86,0.00,,,0.00,VWS V14.01,2017-07-27 13:31:00,
2017-07-27 09:36:00,71.7,66.9,29.92,NNW,331,0.0,0.0,85,0.00,,,0.00,VWS V14.01,2017-07-27 13:36:00,
2017-07-27 09:41:00,72.1,66.7,29.92,NNW,331,0.0,0.0,83,0.00,,,0.00,VWS V14.01,2017-07-27 13:41:00,
2017-07-27 09:46:00,72.2,66.8,29.92,NW,315,0.0,0.0,83,0.00,,,0.00,VWS V14.01,2017-07-27 13:46:00,
2017-07-27 09:51:00,72.1,66.7,29.92,WNW,300,0.0,0.0,83,0.00,,,0.00,VWS V14.01,2017-07-27 13:51:00,
2017-07-27 09:56:00,72.0,66.9,29.93,NNW,333,0.0,3.0,84,0.00,,,0.00,VWS V14.01,2017-07-27 13:56:00,
2017-07-27 10:01:00,71.6,66.5,29.93,NW,309,0.0,0.0,84,0.00,,,0.00,VWS V14.01,2017-07-27 14:01:00,
2017-07-27 10:06:00,71.3,66.6,29.93,NW,319,0.0,0.0,85,0.00,,,0.00,VWS V14.01,2017-07-27 14:06:00,
2017-07-27 10:11:00,70.8,66.4,29.93,NNW,347,0.0,0.0,86,0.00,,,0.00,VWS V14.01,2017-07-27 14:11:00,
2017-07-27 10:16:00,70.5,66.1,29.92,NW,325,0.0,0.0,86,0.00,,,0.00,VWS V14.01,2017-07-27 14:16:00,
2017-07-27 10:21:00,70.2,66.2,29.92,NW,312,0.0,0.0,87,0.00,,,0.00,VWS V14.01,2017-07-27 14:21:00,
2017-07-27 10:26:00,70.1,66.1,29.92,NW,312,0.0,0.0,87,0.00,,,0.00,VWS V14.01,2017-07-27 14:26:00,
2017-07-27 10:31:00,70.0,66.3,29.93,NW,323,0.0,0.0,88,0.00,,,0.00,VWS V14.01,2017-07-27 14:31:00,
2017-07-27 10:36:00,69.9,66.2,29.92,NW,306,0.0,0.0,88,0.00,,,0.00,VWS V14.01,2017-07-27 14:36:00,
2017-07-27 10:41:00,69.8,66.4,29.92,NW,306,0.0,0.0,89,0.00,,,0.00,VWS V14.01,2017-07-27 14:41:00,
2017-07-27 10:46:00,69.9,66.5,29.92,NW,311,0.0,0.0,89,0.00,,,0.00,VWS V14.01,2017-07-27 14:46:00,
2017-07-27 10:51:00,69.8,66.4,29.92,NW,325,0.0,0.0,89,0.00,,,0.00,VWS V14.01,2017-07-27 14:51:00,
2017-07-27 10:56:00,69.6,66.5,29.92,NW,322,0.0,0.0,90,0.00,,,0.00,VWS V14.01,2017-07-27 14:56:00,
2017-07-27 11:01:00,69.7,66.6,29.92,NW,306,0.0,0.0,90,0.00,,,0.00,VWS V14.01,2017-07-27 15:01:00,
2017-07-27 11:06:00,69.7,67.0,29.92,NW,306,0.0,0.0,91,0.00,,,0.00,VWS V14.01,2017-07-27 15:06:00,
2017-07-27 11:11:00,69.7,67.0,29.92,NNW,336,0.0,0.0,91,0.00,,,0.00,VWS V14.01,2017-07-27 15:11:00,
2017-07-27 11:16:00,69.6,66.9,29.92,NNW,336,0.0,0.0,91,0.00,,,0.00,VWS V14.01,2017-07-27 15:16:00,
2017-07-27 11:21:00,69.7,67.0,29.92,NNW,336,0.0,0.0,91,0.00,,,0.00,VWS V14.01,2017-07-27 15:21:00,
2017-07-27 11:26:00,69.9,67.2,29.92,WNW,300,0.0,0.0,91,0.00,,,0.00,VWS V14.01,2017-07-27 15:26:00,
2017-07-27 11:31:00,70.1,67.4,29.92,NNW,333,0.0,0.0,91,0.00,,,0.00,VWS V14.01,2017-07-27 15:31:00,
2017-07-27 11:36:00,70.3,67.6,29.92,NNW,333,0.0,0.0,91,0.00,,,0.00,VWS V14.01,2017-07-27 15:36:00,
2017-07-27 11:41:00,70.4,67.7,29.92,NW,310,0.0,0.0,91,0.00,,,0.00,VWS V14.01,2017-07-27 15:41:00,
2017-07-27 11:47:00,70.6,67.8,29.91,NNW,338,0.0,0.0,91,0.00,,,0.00,VWS V14.01,2017-07-27 15:47:00,
2017-07-27 11:52:00,70.8,68.1,29.91,NNW,338,0.0,0.0,91,0.00,,,0.00,VWS V14.01,2017-07-27 15:52:00,
2017-07-27 11:57:00,71.0,68.2,29.92,NNW,328,0.0,0.0,91,0.00,,,0.00,VWS V14.01,2017-07-27 15:57:00,
2017-07-27 12:02:00,71.3,68.5,29.91,NNW,332,0.0,0.0,91,0.00,,,0.00,VWS V14.01,2017-07-27 16:02:00,
2017-07-27 12:07:00,71.4,68.6,29.91,NNW,332,0.0,0.0,91,0.00,,,0.00,VWS V14.01,2017-07-27 16:07:00,
2017-07-27 12:12:00,71.6,68.5,29.91,NNW,327,0.0,0.0,90,0.00,,,0.00,VWS V14.01,2017-07-27 16:12:00,
2017-07-27 12:17:00,71.7,68.3,29.91,NNW,328,0.0,0.0,89,0.00,,,0.00,VWS V14.01,2017-07-27 16:17:00,
2017-07-27 12:22:00,71.9,68.5,29.91,NNW,328,0.0,0.0,89,0.00,,,0.00,VWS V14.01,2017-07-27 16:22:00,
2017-07-27 12:27:00,72.0,68.6,29.91,NNW,328,0.0,0.0,89,0.00,,,0.00,VWS V14.01,2017-07-27 16:27:00,
2017-07-27 12:32:00,72.1,68.3,29.91,NNW,328,0.0,0.0,88,0.00,,,0.00,VWS V14.01,2017-07-27 16:32:00,
2017-07-27 12:37:00,72.4,68.7,29.91,NNW,328,0.0,0.0,88,0.00,,,0.00,VWS V14.01,2017-07-27 16:37:00,
2017-07-27 12:42:00,72.5,68.8,29.91,NE,42,0.0,0.0,88,0.00,,,0.00,VWS V14.01,2017-07-27 16:42:00,
2017-07-27 12:47:00,72.7,68.9,29.91,North,5,0.0,0.0,88,0.00,,,0.00,VWS V14.01,2017-07-27 16:47:00,
2017-07-27 12:52:00,73.0,68.9,29.92,ENE,69,0.0,0.0,87,0.00,,,0.00,VWS V14.01,2017-07-27 16:52:00,